Location: Hermaringen
(48.5952°N, 10.2585°E)
Time: 01:06:23
(UTC+00:00)

Altair - Pass Details

Date: 16 February 2026
Orbit: 1502 x 1682 km, 47.2° (Epoch: 9 March)

Event Time Altitude Azimuth Distance (km) Brightness Sun altitude
Rises 12:05:28 0° 288° (WNW) 4,778 10.0 28.8°
Reaches altitude 10° 12:09:42 10° 272° (W) 3,822 9.8 28.6°
Maximum altitude 12:15:51 19° 232° (SW) 3,198 10.2 28.4°
Drops below altitude 10° 12:22:07 10° 192° (SSW) 3,895 11.4 28.2°
Sets 12:26:32 0° 176° (S) 4,899 11.2 28.0°
